Flag for Germany Weather past 2 weeks in Homberg (Efze), Hesse, Germany

Now
77 °F

Partly sunny.


Feels Like: 79 °F
Forecast: 64 / 74 °F
Wind: 2 mph from East

Location: Fritzlar

Current Time: Jul 28, 2014 at 12:59:38 PM

Latest Report: Jul 28, 2014 at 12:00 PM


Visibility: 16 mi

Pressure: 29.88 "Hg

Humidity: 64%

Dew point: 64 °F

Location of Homberg (Efze)Location

Historic Weather in Homberg (Efze) — Graph

°F

Homberg (Efze) temperature yesterday

Maximum temperature yesterday: 81 °F (at 4:00 PM)
Minimum temperature yesterday: 58 °F (at 6:00 AM)
Average temperature yesterday: 71 °F

Past Weeks' High & Low Weather Summary

 TemperatureHumidityPressure
High88 °F (Jul 19, 5:00 PM)98% (Jul 26, 6:00 AM)30.20 "Hg (Jul 26, 6:00 AM)
Low55 °F (Jul 15, 6:00 AM)34% (Jul 18, 5:00 PM)29.72 "Hg (Jul 13, 7:00 PM)
Average69 °F72%29.98 "Hg
* Reported Jul 13 11:00 AM — Jul 28 11:00 AM, Homberg (Efze), Weather by CustomWeather, © 2014

Note: Actual official high and low records may vary slightly from our data, if they occured in-between our weather recording intervals... More about our weather records

Advertising

Homberg (Efze) weather history for previous 24 hours

 ConditionsComfort  
Time TempWeatherWind HumidityBarometerVisibility
11:00 AM
Jul 28
74 °FScattered clouds.2 mph69%29.89 "Hg16 mi
10:00 AM71 °FPartly sunny.2 mph77%29.91 "Hg12 mi
9:00 AM68 °FPartly sunny.2 mph81%29.93 "Hg11 mi
8:00 AM63 °FPartly sunny.2 mph90%29.93 "Hg7 mi
7:00 AM62 °FFog.2 mph92%29.94 "Hg7 mi
6:00 AM62 °FFog.2 mph92%29.94 "Hg6 mi
5:00 AM62 °FPassing clouds.2 mph91%29.94 "Hg7 mi
4:00 AM64 °FPassing clouds.2 mph87%29.95 "Hg9 mi
3:00 AM64 °FPassing clouds.3 mph88%29.95 "Hg9 mi
2:00 AM65 °FPassing clouds.2 mph85%29.96 "Hg10 mi
1:00 AM69 °FOvercast.2 mph74%29.97 "Hg10 mi
12:00 AM68 °FOvercast.2 mph76%29.98 "Hg10 mi
11:00 PM
Jul 27
70 °FOvercast.2 mph70%29.98 "Hg10 mi
10:00 PM70 °FPassing clouds.2 mph70%29.97 "Hg11 mi
9:00 PM75 °FPartly sunny.3 mph57%29.96 "Hg12 mi
8:00 PM77 °FPartly sunny.3 mph56%29.95 "Hg12 mi
7:00 PM78 °FScattered clouds.5 mph54%29.93 "Hg12 mi
6:00 PM78 °FPartly sunny.3 mph54%29.92 "Hg16 mi
5:00 PM81 °FPartly sunny.5 mph48%29.93 "Hg19 mi
4:00 PM81 °FScattered clouds.2 mph44%29.93 "Hg19 mi
3:00 PM80 °FScattered clouds.2 mph48%29.94 "Hg16 mi
2:00 PM79 °FScattered clouds.3 mph49%29.95 "Hg16 mi
1:00 PM79 °FScattered clouds.2 mph55%29.96 "Hg16 mi
12:00 PM76 °FScattered clouds.2 mph57%29.97 "Hg11 mi
Weather by CustomWeather, © 2014

See weather overviewHow to use our weather pages